Weather History for Burlington, WA

Change the Weather History Date:

Sunday, January 12, 2014

  Actual Average Record
Temperature  
Mean Temperature 45 °F -  
Max Temperature 51 °F 45 °F 56 °F (1959)
Min Temperature 39 °F 33 °F 11 °F (1963)
Degree Days  
Heating Degree Days 20    
Moisture  
Dew Point 44 °F    
Average Humidity 96    
Maximum Humidity 100    
Minimum Humidity 76    
Precipitation  
Precipitation 0.57 in - - ()
Sea Level Pressure  
Sea Level Pressure 30.06 in    
Wind  
Wind Speed 9 mph (SSW)    
Max Wind Speed 14 mph    
Max Gust Speed 29 mph    
Visibility 8 miles    
Events      
Averages and records for this station are not official NWS values.
T = Trace of Precipitation, MM = Missing Value Source: NWS Daily Summary

Daily Weather History Graph

Daily Weather History Graph

Search for Another Location

Airport:

Trip Planner

Search our weather history database for the weather conditions in past years. The results will help you decide how hot, cold, wet, or windy it might be!

Date:

Astronomy

Jan. 12, 2014 Rise Set
Actual Time 7:58 AM PST 4:38 PM PST
Civil Twilight 7:22 AM PST 5:14 PM PST
Nautical Twilight 6:43 AM PST 5:53 PM PST
Astronomical Twilight 6:05 AM PST 6:31 PM PST
Moon 2:12 PM PST (1/12) 4:59 AM PST (1/12)
Length of Visible Light 9h 51m
Length of Day
8h 40m
Waxing Gibbous, 90% of the Moon is Illuminated
Jan 12
Waxing Gibbous
Jan 15
Full
Jan 23
Last Quarter
Jan 30
New
Feb 6
First Quarter

Hourly Weather History & Observations

Time (PST) Temp. Windchill Dew Point Humidity Pressure Visibility Wind Dir Wind Speed Gust Speed Precip Events Conditions
12:15 AM 46.4 °F 41.5 °F 41.0 °F 81% 29.77 in 10.0 mi WSW 10.4 mph 20.7 mph 0.00 in   Clear
12:35 AM 46.4 °F 41.1 °F 41.0 °F 81% 29.78 in 10.0 mi West 11.5 mph 28.8 mph 0.00 in   Clear
12:55 AM 46.4 °F 40.7 °F 41.0 °F 81% 29.80 in 10.0 mi WSW 12.7 mph 21.9 mph 0.00 in   Clear
1:15 AM 46.4 °F 40.7 °F 41.0 °F 81% 29.82 in 10.0 mi WSW 12.7 mph 21.9 mph 0.00 in   Clear
1:35 AM 46.4 °F 40.7 °F 41.0 °F 81% 29.83 in 10.0 mi West 12.7 mph 23.0 mph 0.00 in   Clear
1:55 AM 46.4 °F 40.7 °F 39.2 °F 76% 29.86 in 10.0 mi West 12.7 mph 24.2 mph 0.00 in   Clear
2:15 AM 46.4 °F 40.7 °F 39.2 °F 76% 29.87 in 10.0 mi West 12.7 mph 23.0 mph 0.00 in   Clear
2:35 AM 46.4 °F 41.1 °F 39.2 °F 76% 29.89 in 10.0 mi West 11.5 mph 24.2 mph 0.00 in   Scattered Clouds
2:55 AM 46.4 °F 41.9 °F 41.0 °F 81% 29.91 in 10.0 mi West 9.2 mph 19.6 mph 0.00 in   Mostly Cloudy
3:15 AM 46.4 °F 41.5 °F 41.0 °F 81% 29.92 in 10.0 mi West 10.4 mph 21.9 mph 0.00 in   Mostly Cloudy
3:35 AM 46.4 °F 42.4 °F 41.0 °F 81% 29.93 in 10.0 mi West 8.1 mph - 0.00 in   Mostly Cloudy
3:55 AM 44.6 °F 41.4 °F 42.8 °F 93% 29.93 in 10.0 mi WSW 5.8 mph 16.1 mph 0.00 in   Partly Cloudy
4:15 AM 44.6 °F 40.2 °F 39.2 °F 81% 29.95 in 10.0 mi WSW 8.1 mph - 0.00 in   Clear
4:35 AM 44.6 °F 40.7 °F 41.0 °F 87% 29.96 in 10.0 mi WSW 6.9 mph - 0.00 in   Scattered Clouds
4:55 AM 44.6 °F 40.7 °F 41.0 °F 87% 29.96 in 10.0 mi WSW 6.9 mph - 0.00 in   Partly Cloudy
5:15 AM 44.6 °F 39.2 °F 42.8 °F 93% 29.98 in 10.0 mi SW 10.4 mph 16.1 mph 0.00 in   Clear
5:35 AM 44.6 °F 39.2 °F 42.8 °F 93% 29.98 in 10.0 mi SW 10.4 mph - 0.00 in   Scattered Clouds
5:55 AM 44.6 °F 40.2 °F 42.8 °F 93% 29.99 in 8.0 mi SW 8.1 mph - 0.00 in   Overcast
6:15 AM 42.8 °F 39.3 °F 42.8 °F 100% 30.00 in 5.0 mi SW 5.8 mph - 0.00 in   Overcast
6:35 AM 42.8 °F 39.3 °F 42.8 °F 100% 30.01 in 6.0 mi SW 5.8 mph - 0.02 in   Overcast
6:55 AM 42.8 °F 40.1 °F 42.8 °F 100% 30.01 in 5.0 mi SW 4.6 mph - 0.04 in   Overcast
7:15 AM 42.8 °F 41.1 °F 42.8 °F 100% 30.01 in 7.0 mi SW 3.5 mph - 0.01 in   Overcast
7:35 AM 41.0 °F 39.0 °F 41.0 °F 100% 30.01 in 6.0 mi South 3.5 mph - 0.03 in   Overcast
7:55 AM 41.0 °F 38.0 °F 41.0 °F 100% 30.01 in 7.0 mi SE 4.6 mph - 0.05 in   Overcast
8:15 AM 41.0 °F 36.4 °F 41.0 °F 100% 30.01 in 6.0 mi SE 6.9 mph - 0.02 in   Overcast
8:35 AM 41.0 °F 36.4 °F 41.0 °F 100% 30.02 in 7.0 mi SE 6.9 mph - 0.02 in   Overcast
8:55 AM 41.0 °F 34.3 °F 41.0 °F 100% 30.02 in 8.0 mi SE 11.5 mph - 0.03 in   Overcast
9:15 AM 39.2 °F 33.0 °F 39.2 °F 100% 30.02 in 9.0 mi ESE 9.2 mph - 0.00 in   Overcast
9:35 AM 41.0 °F 35.2 °F 41.0 °F 100% 30.03 in 9.0 mi SE 9.2 mph - 0.01 in   Overcast
9:55 AM 42.8 °F 38.0 °F 42.8 °F 100% 30.05 in 9.0 mi SSE 8.1 mph 16.1 mph 0.01 in   Overcast
10:15 AM 41.0 °F 34.3 °F 41.0 °F 100% 30.05 in 1.8 mi SE 11.5 mph 20.7 mph 0.01 in   Overcast
10:35 AM 41.0 °F 35.2 °F 41.0 °F 100% 30.06 in 3.0 mi SSE 9.2 mph - 0.02 in   Overcast
10:55 AM 41.0 °F 34.7 °F 41.0 °F 100% 30.06 in 5.0 mi SE 10.4 mph - 0.03 in   Overcast
11:15 AM 39.2 °F 32.5 °F 39.2 °F 100% 30.06 in 7.0 mi SSE 10.4 mph 16.1 mph 0.01 in   Overcast
11:35 AM 41.0 °F 35.8 °F 41.0 °F 100% 30.07 in 8.0 mi SSE 8.1 mph - 0.02 in   Overcast
11:55 AM 41.0 °F 35.2 °F 41.0 °F 100% 30.07 in 9.0 mi SE 9.2 mph - 0.03 in   Overcast
12:15 PM 42.8 °F 39.3 °F 42.8 °F 100% 30.07 in 8.0 mi South 5.8 mph - 0.00 in   Overcast
12:35 PM 42.8 °F 38.6 °F 42.8 °F 100% 30.07 in 5.0 mi SSE 6.9 mph - 0.02 in   Overcast
12:55 PM 42.8 °F 39.3 °F 42.8 °F 100% 30.07 in 4.0 mi SE 5.8 mph - 0.03 in   Overcast
1:15 PM 42.8 °F - 42.8 °F 100% 30.06 in 4.0 mi Calm Calm - 0.02 in   Overcast
1:35 PM 42.8 °F - 42.8 °F 100% 30.06 in 4.0 mi Calm Calm - 0.06 in   Overcast
1:55 PM 42.8 °F 41.1 °F 42.8 °F 100% 30.06 in 5.0 mi East 3.5 mph - 0.08 in   Overcast
2:15 PM 42.8 °F - 42.8 °F 100% 30.07 in 2.0 mi Calm Calm - 0.01 in   Overcast
2:35 PM 42.8 °F 40.1 °F 42.8 °F 100% 30.07 in 3.0 mi SSE 4.6 mph - 0.01 in   Overcast
2:55 PM 42.8 °F 41.1 °F 42.8 °F 100% 30.09 in 1.5 mi East 3.5 mph - 0.01 in   Overcast
3:15 PM 42.8 °F 38.6 °F 42.8 °F 100% 30.10 in 1.0 mi SE 6.9 mph - 0.01 in   Overcast
3:35 PM 44.6 °F 41.4 °F 44.6 °F 100% 30.10 in 1.2 mi East 5.8 mph - 0.05 in   Overcast
3:55 PM 42.8 °F 39.3 °F 42.8 °F 100% 30.12 in 1.2 mi ENE 5.8 mph - 0.16 in   Overcast
4:15 PM 42.8 °F 38.6 °F 42.8 °F 100% 30.12 in 3.0 mi ESE 6.9 mph - 0.05 in   Overcast
4:35 PM 42.8 °F 41.1 °F 42.8 °F 100% 30.13 in 3.0 mi SE 3.5 mph - 0.08 in   Overcast
4:55 PM 44.6 °F 41.4 °F 44.6 °F 100% 30.14 in 7.0 mi South 5.8 mph - 0.09 in   Overcast
5:15 PM 46.4 °F 42.9 °F 46.4 °F 100% 30.14 in 7.0 mi South 6.9 mph - 0.01 in   Overcast
5:35 PM 46.4 °F 40.7 °F 46.4 °F 100% 30.14 in 10.0 mi SW 12.7 mph 21.9 mph 0.01 in   Overcast
5:55 PM 48.2 °F - 48.2 °F 100% 30.15 in 8.0 mi SW 11.5 mph 23.0 mph 0.01 in   Overcast
6:15 PM 48.2 °F - 48.2 °F 100% 30.14 in 9.0 mi SW 13.8 mph 18.4 mph 0.00 in   Overcast
6:35 PM 48.2 °F - 48.2 °F 100% 30.15 in 8.0 mi WSW 9.2 mph 17.3 mph 0.00 in   Overcast
6:55 PM 50.0 °F - 50.0 °F 100% 30.16 in 8.0 mi WSW 8.1 mph 19.6 mph 0.00 in   Overcast
7:15 PM 50.0 °F - 50.0 °F 100% 30.17 in 8.0 mi WSW 12.7 mph 20.7 mph 0.00 in   Overcast
7:35 PM 50.0 °F - 50.0 °F 100% 30.17 in 10.0 mi WSW 10.4 mph 21.9 mph 0.00 in   Overcast
7:55 PM 50.0 °F - 50.0 °F 100% 30.18 in 10.0 mi SW 6.9 mph - 0.00 in   Overcast
8:15 PM 51.8 °F - 50.0 °F 94% 30.19 in 10.0 mi SSW 9.2 mph 24.2 mph 0.00 in   Overcast
8:35 PM 48.2 °F - 48.2 °F 100% 30.19 in 10.0 mi SSW 3.5 mph - 0.00 in   Overcast
8:55 PM 50.0 °F - 48.2 °F 94% 30.19 in 10.0 mi SW 9.2 mph - 0.00 in   Overcast
9:15 PM 48.2 °F - 48.2 °F 100% 30.20 in 10.0 mi SSW 8.1 mph - 0.00 in   Overcast
9:35 PM 48.2 °F - 48.2 °F 100% 30.21 in 10.0 mi SSW 9.2 mph - 0.00 in   Overcast
9:55 PM 46.4 °F 42.9 °F 46.4 °F 100% 30.22 in 10.0 mi South 6.9 mph - 0.00 in   Overcast
10:15 PM 46.4 °F 42.9 °F 46.4 °F 100% 30.23 in 10.0 mi SSE 6.9 mph - 0.00 in   Overcast
10:35 PM 46.4 °F - 46.4 °F 100% 30.24 in 10.0 mi Calm Calm - 0.00 in   Overcast
10:55 PM 48.2 °F - 48.2 °F 100% 30.24 in 10.0 mi SW 8.1 mph - 0.00 in   Overcast
11:15 PM 48.2 °F - 48.2 °F 100% 30.26 in 9.0 mi South 8.1 mph - 0.00 in   Overcast
11:35 PM 48.2 °F - 48.2 °F 100% 30.27 in 10.0 mi South 8.1 mph - 0.00 in   Overcast
11:55 PM 48.2 °F - 48.2 °F 100% 30.28 in 10.0 mi SSW 6.9 mph - 0.00 in   Overcast